TimeEST,TemperatureF,Dew PointF,Humidity,Sea Level PressureIn,VisibilityMPH,Wind Direction,Wind SpeedMPH,Gust SpeedMPH,PrecipitationIn,Events,Conditions,WindDirDegrees,DateUTC
12:15 AM,37.2,33.4,86,30.17,10.0,Calm,Calm,-,N/A,,Overcast,0,2013-01-03 05:15:00
12:35 AM,36.7,34.2,91,30.17,10.0,Calm,Calm,-,N/A,,Overcast,0,2013-01-03 05:35:00
12:55 AM,36.9,34.0,89,30.16,10.0,Calm,Calm,-,N/A,,Overcast,0,2013-01-03 05:55:00
1:15 AM,37.0,33.3,86,30.15,10.0,Calm,Calm,-,N/A,,Overcast,0,2013-01-03 06:15:00
1:35 AM,37.4,32.0,81,30.17,10.0,Calm,Calm,-,N/A,,Overcast,0,2013-01-03 06:35:00
1:55 AM,37.6,31.6,79,30.17,10.0,Calm,Calm,-,N/A,,Overcast,0,2013-01-03 06:55:00
2:15 AM,37.6,31.6,79,30.17,10.0,Calm,Calm,-,N/A,,Overcast,0,2013-01-03 07:15:00
2:55 AM,37.4,31.3,79,30.17,10.0,Calm,Calm,-,N/A,,Overcast,0,2013-01-03 07:55:00
3:15 AM,36.9,31.8,82,30.17,10.0,Calm,Calm,-,N/A,,Overcast,0,2013-01-03 08:15:00
3:35 AM,37.4,30.6,76,30.17,10.0,Calm,Calm,-,N/A,,Overcast,0,2013-01-03 08:35:00
3:55 AM,37.4,31.1,78,30.16,10.0,Calm,Calm,-,N/A,,Overcast,0,2013-01-03 08:55:00
4:15 AM,37.0,32.5,84,30.16,10.0,Calm,Calm,-,N/A,,Overcast,0,2013-01-03 09:15:00
4:35 AM,37.4,32.4,82,30.16,10.0,Calm,Calm,-,N/A,,Overcast,0,2013-01-03 09:35:00
5:15 AM,37.0,31.5,80,30.16,10.0,Calm,Calm,-,N/A,,Overcast,0,2013-01-03 10:15:00
5:35 AM,37.4,30.4,76,30.16,10.0,Calm,Calm,-,N/A,,Overcast,0,2013-01-03 10:35:00
5:55 AM,37.2,31.1,79,30.17,10.0,Calm,Calm,-,N/A,,Overcast,0,2013-01-03 10:55:00
6:15 AM,37.0,31.5,80,30.18,10.0,Calm,Calm,-,N/A,,Overcast,0,2013-01-03 11:15:00
6:35 AM,36.9,31.8,82,30.19,10.0,Calm,Calm,-,N/A,,Overcast,0,2013-01-03 11:35:00
7:15 AM,36.9,30.6,78,30.19,10.0,Calm,Calm,-,N/A,,Overcast,0,2013-01-03 12:15:00
7:35 AM,36.9,30.6,78,30.20,10.0,Calm,Calm,-,N/A,,Overcast,0,2013-01-03 12:35:00
7:55 AM,36.9,28.8,72,30.20,10.0,Calm,Calm,-,N/A,,Overcast,0,2013-01-03 12:55:00
8:15 AM,36.7,28.9,74,30.21,10.0,Calm,Calm,-,N/A,,Overcast,0,2013-01-03 13:15:00
8:35 AM,36.9,29.5,75,30.21,10.0,Calm,Calm,-,N/A,,Overcast,0,2013-01-03 13:35:00
8:55 AM,36.9,29.3,74,30.21,10.0,Calm,Calm,-,N/A,,Overcast,0,2013-01-03 13:55:00
9:15 AM,37.0,30.0,76,30.21,10.0,Calm,Calm,-,N/A,,Overcast,0,2013-01-03 14:15:00
9:35 AM,37.2,30.6,77,30.22,10.0,Calm,Calm,-,N/A,,Overcast,0,2013-01-03 14:35:00
9:55 AM,37.4,30.7,77,30.23,10.0,Calm,Calm,-,N/A,,Overcast,0,2013-01-03 14:55:00
10:35 AM,38.3,30.4,73,30.23,10.0,Calm,Calm,-,N/A,,Overcast,0,2013-01-03 15:35:00
10:55 AM,38.7,30.2,72,30.22,10.0,Calm,Calm,-,N/A,,Overcast,0,2013-01-03 15:55:00
11:35 AM,39.7,29.5,67,30.20,10.0,Calm,Calm,-,N/A,,Overcast,0,2013-01-03 16:35:00
11:55 AM,39.9,29.5,66,30.19,10.0,Calm,Calm,-,N/A,,Overcast,0,2013-01-03 16:55:00
12:15 PM,39.7,29.5,67,30.19,10.0,Calm,Calm,-,N/A,,Overcast,0,2013-01-03 17:15:00
12:35 PM,40.3,30.2,67,30.17,10.0,Calm,Calm,-,N/A,,Overcast,0,2013-01-03 17:35:00
12:55 PM,40.3,30.2,67,30.17,10.0,Calm,Calm,-,N/A,,Overcast,0,2013-01-03 17:55:00
1:15 PM,40.5,30.6,68,30.17,10.0,Calm,Calm,-,N/A,,Overcast,0,2013-01-03 18:15:00
1:35 PM,40.6,30.7,68,30.17,10.0,Calm,Calm,-,N/A,,Overcast,0,2013-01-03 18:35:00
1:55 PM,41.0,30.9,67,30.17,10.0,Calm,Calm,-,N/A,,Overcast,0,2013-01-03 18:55:00
2:15 PM,41.0,31.6,69,30.17,10.0,Calm,Calm,-,N/A,,Overcast,0,2013-01-03 19:15:00
2:35 PM,41.0,32.2,71,30.17,10.0,WSW,3.5,-,N/A,,Overcast,240,2013-01-03 19:35:00
2:55 PM,40.8,32.0,71,30.16,10.0,Calm,Calm,-,N/A,,Overcast,0,2013-01-03 19:55:00
3:15 PM,41.2,32.5,71,30.17,10.0,Calm,Calm,-,N/A,,Overcast,0,2013-01-03 20:15:00
3:35 PM,41.4,32.9,72,30.19,10.0,Calm,Calm,-,N/A,,Mostly Cloudy,0,2013-01-03 20:35:00
3:55 PM,41.9,32.9,70,30.19,10.0,Calm,Calm,-,N/A,,Scattered Clouds,0,2013-01-03 20:55:00
4:15 PM,41.4,32.2,70,30.19,10.0,Calm,Calm,-,N/A,,Scattered Clouds,0,2013-01-03 21:15:00
4:35 PM,41.0,32.4,71,30.19,10.0,Calm,Calm,-,N/A,,Clear,0,2013-01-03 21:35:00
4:55 PM,40.1,32.0,73,30.20,10.0,Calm,Calm,-,N/A,,Clear,0,2013-01-03 21:55:00
5:15 PM,37.4,32.0,81,30.20,10.0,Calm,Calm,-,N/A,,Clear,0,2013-01-03 22:15:00
5:35 PM,34.5,32.0,90,30.20,10.0,Calm,Calm,-,N/A,,Clear,0,2013-01-03 22:35:00
5:55 PM,32.5,30.9,94,30.21,10.0,Calm,Calm,-,N/A,,Clear,0,2013-01-03 22:55:00
6:15 PM,31.1,29.5,94,30.22,10.0,Calm,Calm,-,N/A,,Clear,0,2013-01-03 23:15:00
6:35 PM,32.0,30.6,94,30.22,10.0,Calm,Calm,-,N/A,,Clear,0,2013-01-03 23:35:00
7:15 PM,29.3,28.2,96,30.23,7.0,Calm,Calm,-,N/A,,Clear,0,2013-01-04 00:15:00
7:35 PM,30.2,29.5,97,30.23,7.0,Calm,Calm,-,N/A,,Clear,0,2013-01-04 00:35:00
7:55 PM,28.4,27.5,96,30.24,5.0,Calm,Calm,-,N/A,,Clear,0,2013-01-04 00:55:00
8:15 PM,28.8,28.0,97,30.24,5.0,Calm,Calm,-,N/A,,Clear,0,2013-01-04 01:15:00
8:35 PM,27.7,27.1,98,30.24,5.0,Calm,Calm,-,N/A,,Clear,0,2013-01-04 01:35:00
8:55 PM,27.5,27.0,98,30.24,5.0,Calm,Calm,-,N/A,,Clear,0,2013-01-04 01:55:00
9:15 PM,27.5,27.0,98,30.24,7.0,Calm,Calm,-,N/A,,Clear,0,2013-01-04 02:15:00
9:35 PM,26.4,25.9,98,30.25,7.0,Calm,Calm,-,N/A,,Clear,0,2013-01-04 02:35:00
9:55 PM,26.8,26.1,97,30.25,5.0,Calm,Calm,-,N/A,,Clear,0,2013-01-04 02:55:00
10:15 PM,26.8,26.1,97,30.25,7.0,Calm,Calm,-,N/A,,Clear,0,2013-01-04 03:15:00
10:35 PM,25.5,24.6,96,30.26,7.0,Calm,Calm,-,N/A,,Clear,0,2013-01-04 03:35:00
10:55 PM,26.1,25.3,97,30.26,5.0,Calm,Calm,-,N/A,,Clear,0,2013-01-04 03:55:00
11:15 PM,26.1,25.2,96,30.26,5.0,Calm,Calm,-,N/A,,Clear,0,2013-01-04 04:15:00
11:35 PM,25.0,24.3,97,30.26,7.0,Calm,Calm,-,N/A,,Clear,0,2013-01-04 04:35:00
11:55 PM,26.1,25.3,97,30.25,7.0,Calm,Calm,-,N/A,,Clear,0,2013-01-04 04:55:00